Location: Hauppauge
(40.8260°N, 73.2030°W)
Time: 08:59:23
(UTC-05:00)

Daily predictions for brighter satellites

Satellite Brightness Start Highest point End
(mag) Time Altitude Azimuth Time Altitude Azimuth Time Altitude Azimuth
Tsikada Rocket 4.3 16:51:27 10° N 16:57:16 42° ENE 17:03:04 10° SSE
CSL-04 Debris 4.3 16:52:25 10° SSE 16:57:44 57° ENE 17:03:02 10° N
NOSS 3-2 (A) 4.4 16:53:30 10° WSW 16:59:13 45° NW 17:05:34 10° NNE
Cosmos 1844 4.2 16:55:52 10° S 17:01:17 44° ESE 17:06:45 10° NE
ALOS 3.8 16:59:52 10° E 17:02:24 15° ENE 17:04:57 10° NNE
BREEZE-M DEB (TANK) 3.6 16:50:09 10° WNW 17:02:44 83° NNE 17:06:41 10° ESE
MSX 4.2 16:57:31 10° S 17:03:15 72° WSW 17:09:03 10° NNW
Cosmos 1833 Rocket 4.4 17:06:01 10° NNE 17:08:07 12° NE 17:10:13 10° ENE
Cosmos 2278 Rocket 3.3 17:04:15 10° SSE 17:08:40 24° E 17:13:05 10° NE
Cosmos 2016 Rocket 4.1 17:03:48 10° S 17:10:09 87° E 17:16:30 10° N
Cosmos 1862 3.4 17:08:15 10° N 17:12:17 88° W 17:16:19 10° S
USA 161 3.8 17:12:46 10° NW 17:13:39 12° WNW 17:14:34 10° WSW
SMAP 3.0 17:09:30 10° SSE 17:14:07 69° ENE 17:18:45 10° N
Cosmos 2263 Rocket 4.2 17:12:19 10° WSW 17:16:53 25° NW 17:21:28 10° N
Cosmos 1484 Rocket 2.7 17:14:01 10° SSE 17:17:49 77° ENE 17:21:43 10° N
Lacrosse 5 3.2 17:17:18 10° W 17:21:52 33° NNW 17:26:26 10° NNE
Cosmos 468 Rocket 4.0 17:18:17 10° N 17:23:24 55° ENE 17:28:26 10° SE
Aureole 3 3.8 17:20:32 10° N 17:24:52 84° E 17:30:25 10° S
COSMO-SKYMED 1 3.3 17:21:01 10° NNE 17:24:55 31° E 17:28:47 10° SSE
OE (NEXTSAT) 4.3 17:21:41 10° WNW 17:25:13 90° SE 17:28:45 10° ESE
CENTAUR R/B 2.5 17:19:19 10° SSW 17:25:18 86° ESE 17:32:09 10° NE
Cosmos 1782 4.4 17:23:13 10° SE 17:25:40 16° E 17:26:41 15° ENE
YAOGAN 1 2.7 17:23:32 10° SSE 17:27:42 50° ENE 17:31:54 10° N
Cosmos 1461 3.2 17:24:55 10° NNW 17:29:37 90° SSW 17:34:21 10° SSE
CORIOLIS 4.2 17:25:42 10° SSE 17:31:08 85° ENE 17:36:38 10° NNW
EO 1 Del DPAF 3.8 17:29:25 10° NNE 17:32:58 35° E 17:36:29 10° SSE
Meteor 1-28 Rocket 3.1 17:30:40 10° NNE 17:34:24 88° ESE 17:38:06 10° SSW
Cosmos 1606 4.0 17:32:52 10° SE 17:35:37 20° E 17:36:08 19° ENE
Meteor 2-12 Rocket 4.4 17:31:07 10° S 17:37:13 87° E 17:43:20 10° N
ERBS 3.3 17:37:11 10° NNW 17:40:11 28° NE 17:41:13 24° ENE
CZ-4 R/B 4.4 17:38:31 10° SSE 17:42:39 68° ENE 17:46:48 10° N
Landsat 4 3.6 17:39:23 10° NNE 17:43:11 84° ESE 17:46:58 10° SSW
USA 116 4.0 17:38:30 10° NNE 17:43:15 86° WNW 17:47:25 10° SSW
COSMOS 2455 2.8 17:41:10 10° SSW 17:47:10 79° ESE 17:53:09 10° NNE
Cosmos 2082 Rocket 3.3 17:43:31 10° N 17:47:57 23° NE 17:49:08 21° ENE
Cosmos 1763 Rocket 3.5 17:43:34 10° N 17:48:42 54° ENE 17:53:44 10° SE
Cosmos 1437 2.8 17:45:43 10° SSW 17:48:53 74° WNW 17:52:03 10° N
Cosmos 1633 4.4 17:46:31 10° NNE 17:47:30 16° NNE 17:47:30 16° NNE
Cosmos 1703 Rocket 4.0 17:45:31 10° SSE 17:49:39 38° E 17:53:26 12° NNE
IRS-1A Rocket 4.4 17:43:54 10° SSE 17:49:46 83° WSW 17:55:34 10° NNW
Cosmos 1814 Rocket 4.0 17:46:27 10° NNW 17:51:48 65° ENE 17:57:06 10° SSE
Timation 1 Rocket 4.3 17:46:03 10° SSW 17:52:00 72° ESE 17:57:58 10° NNE
BREEZE-M R/B 3.1 17:50:15 10° NW 17:52:53 37° NNE 17:53:57 30° ENE
CZ-4C R/B 4.1 17:49:26 10° NNW 17:54:15 19° NNE 17:56:06 18° NE
SKYMED 3 4.5 17:50:39 10° NNE 17:54:59 69° E 17:59:18 10° S
Meteor 1-14 Rocket 4.1 17:51:03 10° N 17:56:47 74° E 18:02:21 10° SSE
Cosmos 2233 Rocket 4.0 17:54:10 10° S 18:00:27 86° W 18:06:43 10° N
MONITOR-E 3.9 17:58:51 10° SSE 18:01:53 78° ENE 18:04:57 10° N
GENESIS II 4.1 18:00:55 10° NNW 18:04:51 66° ENE 18:06:46 28° SE
CZ-4 R/B 2.8 18:01:20 10° SSW 18:04:59 38° W 18:08:37 10° NNW
Cosmos 304 Rocket 3.6 18:04:39 10° NNW 18:09:29 80° ENE 18:14:16 10° SSE
BREEZE-M DEB (TANK) 4.3 18:09:55 10° WNW 18:12:01 25° N 18:12:20 25° N
COSMOS 2406 4.3 18:07:30 10° NW 18:12:58 46° WSW 18:18:21 10° S
SKYMED 2 3.7 18:08:43 10° N 18:13:04 74° WNW 18:17:23 10° SSW
Sich 1 Rocket 3.4 18:09:09 10° N 18:13:34 74° E 18:17:59 10° SSE
NOAA 12 4.0 18:09:10 10° SSE 18:14:28 75° ENE 18:19:47 10° N
Cosmos 1908 Rocket 3.5 18:11:23 10° N 18:15:45 86° W 18:20:04 10° S
SPOT 3 Rocket 3.5 18:10:48 10° SSE 18:16:02 89° ENE 18:21:17 10° NNW
Cosmos 1486 Rocket 3.9 18:10:58 10° SSW 18:16:08 80° ESE 18:19:52 20° NNE
Cosmos 841 Rocket 3.4 18:15:14 10° NNW 18:20:32 79° ENE 18:25:48 10° SSE
USA 234 3.4 18:18:04 22° NE 18:22:28 70° NW 18:28:57 10° WSW
Cosmos 1844 Rocket 4.4 18:21:10 10° WSW 18:26:04 30° WNW 18:30:59 10° N
Cosmos 1513 Rocket 4.5 18:20:18 10° S 18:26:29 58° E 18:32:37 10° NNE
Cosmos 540 Rocket 3.7 18:22:04 10° N 18:26:37 45° NE 18:26:37 45° NE
ERS-2 3.9 18:24:18 10° SSW 18:27:39 33° W 18:31:01 10° NNW
Cosmos 1354 Rocket 4.1 18:24:50 10° S 18:29:57 53° ESE 18:30:16 52° E
Cosmos 1891 Rocket 4.3 18:30:57 10° S 18:37:07 68° E 18:43:10 10° NNE
ALOS 2.7 18:34:42 10° S 18:39:19 61° W 18:43:58 10° NNW
Cosmos 2297 3.6 18:37:16 10° S 18:42:51 61° ESE 18:42:54 61° ESE
Celestis-02/Orion 38 4.4 18:43:23 53° NNE 18:44:38 90° WNW 18:49:49 10° SSW
FENGYUN 3A 4.3 18:45:47 10° S 18:51:04 54° W 18:56:23 10° NNW
Cosmos 2278 Rocket 3.0 18:46:55 10° SW 18:52:22 48° WNW 18:55:56 21° N
Thor Agena Rocket 3.5 18:53:14 71° S 18:53:14 71° S 18:57:49 10° SSW
Cosmos 1833 Rocket 2.7 18:47:29 10° NNW 18:52:29 64° NNE 18:52:29 64° NNE
Cosmos 2034 Rocket 3.9 18:48:21 10° S 18:54:42 81° E 18:59:15 21° N
Cosmos 1782 Rocket 4.4 18:55:29 10° NNW 18:59:39 47° W 19:03:49 10° SSW
Okean 1-7 3.9 18:55:43 10° SSW 18:59:56 49° W 19:00:28 46° NW
Cosmos 1782 4.4 18:57:59 10° SW 19:01:42 35° WNW 19:02:24 32° NW
Cosmos 2221 Rocket 4.4 18:59:57 10° SSW 19:04:06 49° W 19:04:06 49° W
Lacrosse 5 4.2 19:03:39 10° NW 19:06:16 14° N 19:06:24 14° N
CENTAUR R/B 4.4 19:11:54 10° W 19:16:57 24° NNW 19:20:29 17° N
Meteor 1-27 Rocket 4.5 19:20:19 10° SSW 19:24:35 48° SW 19:24:35 48° SW
Cosmos 2082 Rocket 3.1 19:26:51 10° NNW 19:31:03 45° WNW 19:31:03 45° WNW
CZ-4C R/B 3.7 19:37:01 10° NNW 19:41:18 39° NNW 19:41:18 39° NNW
